Regional Weather Roundup
Issued by NWS

Home | Current Version | Previous Version | Text Only | Print | Product List | Glossary Off
Versions: 1 2 3 4 5 6 7 8 9 10 11 12 13 14 15 16 17 18 19 20 21 22 23 24 25 26 27 28 29 30 31 32 33 34 35 36 37 38 39 40 41 42 43 44 45 46 47 48 49 50

000
ASUS43 KLOT 050900
RWRIL

ILLINOIS REGIONAL WEATHER ROUNDUP
NATIONAL WEATHER SERVICE CHICAGO/ROMEOVILLE IL
400 AM CDT TUE MAY 05 2015

NOTE: "FAIR" INDICATES FEW OR NO CLOUDS BELOW 12,000 FEET WITH NO
SIGNIFICANT WEATHER AND/OR OBSTRUCTIONS TO VISIBILITY.

* THESE STATIONS ARE NOT UNDER NWS QUALITY CONTROL. THEY ALSO MAY NOT
  REPORT WEATHER SUCH AS PRECIPITATION OR FOG.

ILZ001-002-007-009-015-016-024-051000-
NORTHWEST ILLINOIS

CITY           SKY/WX    TMP DP  RH WIND       PRES   REMARKS
MOLINE         HVY RAIN  60  58  92 E7        30.12R FOG
STERLING*      CLOUDY    55  52  88 E14       30.15S
$$

ILZ003-004-008-010-011-017-018-051000-
NORTH CENTRAL ILLINOIS

CITY           SKY/WX    TMP DP  RH WIND       PRES   REMARKS
ROCKFORD       RAIN      51  48  89 E13       30.19F FOG
$$

ILZ005-006-012>014-019>023-051000-
NORTHEAST ILLINOIS

CITY           SKY/WX    TMP DP  RH WIND       PRES   REMARKS
CHICAGO-OHARE  RAIN      51  47  86 NE10      30.18S
CHICAGO-MIDWAY LGT RAIN  55  49  80 N7        30.16S
AURORA         RAIN      51  47  86 NE12      30.18F FOG
WAUKEGAN       RAIN      49  45  86 N6        30.21R FOG
DUPAGE AIRPORT HVY RAIN  50  48  93 NE6       30.19R FOG
WHEELING       RAIN      50  46  86 N6        30.21R FOG
NORTHERLY ISL    N/A     50  44  80 N12         N/A
$$

LMZ740>746-051000-
SOUTHERN LAKE MICHIGAN

STATION/POSITION SKY/WX   TEMP    WIND        PRES    VSBY  WAVE
                          AIR SEA DIR/SP/G                  HT/PER
                          (F)     (DEG/KT/KT) (MB)    (MI)  (FT/S)
HARRISON CRIB              51     360/  8/  9   N/A
BURNHAM HARBOR             50      10/  5/  6   N/A
CALUMET HARBOR             50      20/  6/  7   N/A
BURNS HARBOR               49     350/  8/ 10 1022.4R
MICHIGAN CITY              52     220/ 10/ 11   N/A
MICHIGAN CITY 6N           50 50  300/ 12/ 17   N/A           1
ST. JOSEPH                 57 50  110/  6/  6   N/A           0
$$

ILZ025>027-034>036-040-047-049-050-058-095>099-051000-
WEST-CENTRAL ILLINOIS

CITY           SKY/WX    TMP DP  RH WIND       PRES   REMARKS
QUINCY         CLOUDY    63  61  93 SE7       30.09S
$$

ILZ028>032-037-038-041>044-048-051>054-059>061-051000-
CENTRAL ILLINOIS

CITY           SKY/WX    TMP DP  RH WIND       PRES   REMARKS
DECATUR        CLOUDY    68  55  63 SW12      30.13R
PEORIA         CLOUDY    65  62  90 N5        30.12R FOG
SPRINGFIELD    CLOUDY    68  55  63 S12       30.11S
TAYLORVILLE    NOT AVBL
$$

ILZ033-039-045-046-055>057-062-063-051000-
EAST-CENTRAL ILLINOIS

CITY           SKY/WX    TMP DP  RH WIND       PRES   REMARKS
CHAMPAIGN      CLOUDY    61  58  90 SE7       30.14S
MATTOON        MOCLDY    67  53  61 S9        30.15R
$$

ILZ079-100>102-051000-
SOUTHWEST ILLINOIS

CITY           SKY/WX    TMP DP  RH WIND       PRES   REMARKS
CAHOKIA*       MOCLDY    69  54  58 CALM      30.14S
$$

ILZ064>066-069>071-074>076-080>082-084>086-088>090-092>094-051000-
SOUTH-CENTRAL ILLINOIS

CITY           SKY/WX    TMP DP  RH WIND       PRES   REMARKS
CARBONDALE     PTCLDY    57  52  83 CALM      30.18S
MT. VERNON     PTCLDY   N/A N/A N/A CALM      30.18S
$$

ILZ067-068-072-073-078-083-087-091-051000-
SOUTHEAST ILLINOIS

CITY           SKY/WX    TMP DP  RH WIND       PRES   REMARKS
LAWRENCEVILLE  MOCLDY    61  56  83 S7        30.19R
$$

ABBREVIATIONS USED IN REMARKS
   TC - TEMPERATURE IN CELSIUS
  WCI - WIND CHILL INDEX
   HX - HEAT INDEX
  VSB - VISIBILITY
$$




USA.gov is the U.S. government's official web portal to all federal, state and local government web resources and services.